Regional Weather Roundup
Issued by NWS Little Rock, AR

Home | Current Version | Previous Version | Graphics & Text | Print | Product List | Glossary On
Versions: 1 2 3 4 5 6 7 8 9 10 11 12 13 14 15 16 17 18 19 20 21 22 23 24 25 26 27 28 29 30 31 32 33 34 35 36 37 38 39 40 41 42 43 44 45 46 47 48 49 50
563
ASUS44 KLZK 020405
RWRLZK

WEATHER ROUNDUP FOR ARKANSAS
NATIONAL WEATHER SERVICE LITTLE ROCK AR
1100 PM CDT SUN MAY 01 2016

NOTE: "FAIR" INDICATES FEW OR NO CLOUDS BELOW 12,000 FEET WITH NO
SIGNIFICANT WEATHER AND/OR OBSTRUCTIONS TO VISIBILITY.

ARZ001-003-010-029-020500-
NORTHWEST ARKANSAS

CITY           SKY/WX    TMP DP  RH WIND       PRES   REMARKS
FAYETTEVILLE   CLOUDY    51  48  89 CALM      30.09R
FORT SMITH     PTCLDY    61  44  53 NW9       30.06R
HARRISON       CLEAR     53  45  74 NW5       30.06R
BENTONVILLE    MOCLDY    55  43  62 N5        30.10R
ROGERS         MOCLDY    53  47  79 CALM      30.10R
SILOAM SPGS    CLOUDY    54  43  66 N7        30.10S
HIGHFILL       CLOUDY    55  48  77 NW7       30.09R
$$

ARZ004-005-016-020500-
NORTH CENTRAL ARKANSAS

CITY           SKY/WX    TMP DP  RH WIND       PRES   REMARKS
BATESVILLE     CLEAR     63  54  72 CALM      30.02R
FLIPPIN        CLEAR    N/A N/A N/A NW5       30.02R
MTN HOME       CLEAR     55  46  71 NW3       30.03R
$$

ARZ040-041-020500-
WEST CENTRAL ARKANSAS

CITY           SKY/WX    TMP DP  RH WIND       PRES   REMARKS
MENA           CLEAR     55  52  88 CALM      30.05R
MOUNT IDA      CLEAR     58  53  84 CALM      30.00R
$$

ARZ009-017-025-026-028-020500-
NORTHEAST ARKANSAS

CITY           SKY/WX    TMP DP  RH WIND       PRES   REMARKS
CORNING          N/A     66  54  63 N10       29.98S
JONESBORO      CLEAR     68  52  56 CALM      29.97R
NEWPORT        MOCLDY    68  62  80 NW3       30.00R
WALNUT RIDGE   CLEAR     64  52  63 NW10      29.99R
BLYTHEVILLE    PTCLDY    70  61  73 CALM      29.98R
$$

ARZ022-023-033-042-044-020500-
CENTRAL ARKANSAS

CITY           SKY/WX    TMP DP  RH WIND       PRES   REMARKS
LITTLE ROCK    CLEAR     67  54  63 NW7       29.98R
N LITTLE ROCK    N/A     65  55  70 N5        29.97R
JACKSONVILLE   CLEAR     61  59  92 W2        29.97S
SEARCY         CLEAR     66  59  77 N5        30.00R
HOT SPRINGS    PTCLDY    64  54  69 CALM      30.00R
RUSSELLVILLE   CLEAR     63  53  70 N5        30.01R
$$

ARZ036-020500-
EAST ARKANSAS

CITY           SKY/WX    TMP DP  RH WIND       PRES   REMARKS
WEST MEMPHIS   CLEAR     68  68 100 CALM      29.94F
$$

ARZ050-053-066-070-073-020500-
SOUTHWEST ARKANSAS

CITY           SKY/WX    TMP DP  RH WIND       PRES   REMARKS
ARKADELPHIA    FAIR      69  63  81 N5        29.98R
CAMDEN         CLEAR     68  64  88 CALM      29.96S
TEXARKANA      CLOUDY    70  56  61 N7        29.98R
EL DORADO      CLOUDY    70  67  90 NE5       29.95S
DE QUEEN       PTCLDY    63  49  60 N3        30.00R
$$

ARZ056-057-069-020500-
SOUTHEAST ARKANSAS

CITY           SKY/WX    TMP DP  RH WIND       PRES   REMARKS
PINE BLUFF     MOCLDY    70  62  76 N6        29.97R
STUTTGART      PTCLDY    72  59  64 N8        29.97S
MONTICELLO     PTCLDY    71  68  90 CALM      29.95R

$$






USA.gov is the U.S. government's official web portal to all federal, state and local government web resources and services.